Location: Remedello Sotto
(45.2500°N, 10.3667°E)
Time: 13:29:20
(UTC+00:00)

Cosmos 2333 Rocket - Visible Passes

Search period start: 25 September 2023 00:00
Search period end: 05 October 2023 00:00
Orbit: 840 x 861 km, 70.8° (Epoch: 24 September)

Date Brightness Start Highest point End Pass type
(mag) Time Alt. Az. Time Alt. Az. Time Alt. Az.
25 Sep 3.6 02:46:35 10° NNW 02:51:57 39° NE 02:57:18 10° SE visible
25 Sep 2.8 04:31:00 10° NW 04:36:09 36° WSW 04:41:19 10° S visible
25 Sep 2.4 17:41:34 10° S 17:47:00 51° ESE 17:52:29 10° NE visible
25 Sep 4.1 19:26:41 10° WSW 19:31:32 29° NW 19:36:27 10° N visible
26 Sep 3.5 02:34:14 10° NNW 02:39:36 39° NE 02:44:57 10° SE visible
26 Sep 2.8 04:18:39 10° NW 04:23:49 36° WSW 04:28:58 10° S visible
26 Sep 2.4 17:29:13 10° S 17:34:39 51° ESE 17:40:08 10° NE visible
26 Sep 4.2 19:14:20 10° WSW 19:19:11 29° NW 19:24:06 10° N visible
27 Sep 3.5 02:21:54 10° NNW 02:27:16 39° NE 02:32:37 10° SE visible
27 Sep 2.7 04:06:18 10° NW 04:11:28 36° WSW 04:16:38 10° S visible
27 Sep 4.2 19:01:59 10° WSW 19:06:51 29° NW 19:11:46 10° N visible
28 Sep 3.5 02:09:33 10° NNW 02:14:55 39° NE 02:20:16 10° SE visible
28 Sep 2.7 03:53:58 10° NW 03:59:07 36° WSW 04:04:18 10° S visible
28 Sep 4.2 18:49:38 10° WSW 18:54:30 29° NW 18:59:25 10° N visible
29 Sep 3.4 01:57:13 10° NNW 02:02:35 39° NE 02:07:56 10° SE visible
29 Sep 2.7 03:41:36 10° NW 03:46:47 36° WSW 03:51:57 10° S visible
29 Sep 4.2 18:37:17 10° WSW 18:42:10 29° NW 18:47:05 10° N visible
30 Sep 3.4 01:44:52 10° NNW 01:50:14 39° NE 01:55:35 10° SE visible
30 Sep 2.7 03:29:16 10° NW 03:34:27 36° WSW 03:39:37 10° S visible
30 Sep 4.2 18:24:56 10° WSW 18:29:49 29° NW 18:34:44 10° N visible
01 Oct 4.0 01:32:31 10° NNW 01:43:26 - SE 01:35:15 25° N visible
01 Oct 3.8 03:16:55 10° NW 03:25:48 17° SSW 03:27:16 10° S visible
01 Oct 4.2 18:12:36 10° WSW 18:17:28 29° NW 18:22:24 10° N visible
02 Oct 4.6 01:20:11 10° NNW 01:21:01 14° N 01:21:01 14° N visible
02 Oct5.003:17:28S03:17:28S03:02:54NWvisible
02 Oct 4.2 18:00:15 10° WSW 18:05:07 29° NW 18:10:03 10° N visible
03 Oct 4.2 17:47:54 10° WSW 17:52:47 29° NW 17:57:43 10° N visible
04 Oct 4.2 17:35:33 10° WSW 17:40:26 29° NW 17:45:22 10° N visible
